sat.trackr.live / text

‹ back to catalog

STARLINK-31068

NORAD 58623 · 2023-203F

PAYLOAD ACTIVE UNKNOWN

§ Identity

Operator
Country
US
Launch date
2023-12-23
Launch site
AFETR
Launch vehicle
Mass (kg)
RCS (m²)

Purposes: comms

External: N2YO · Heavens-Above · Gunter

§ Orbital elements

Epoch: 2026-09-20T02:26:13.446528Z

Period
94.27 min
Inclination
43.0000°
Eccentricity
0.0001087
Mean motion
15.27577869 rev/d
Perigee alt
482.3 km
Apogee alt
483.8 km
Semi-major
6,861.2 km
B*
2.1871e-5
RAAN
49.2043°
Arg perigee
262.3296°
Mean anomaly
97.7433°
Rev number
15,329

§ Raw data

STARLINK-310681 58623U 23203F   26263.10154452  .00000340  00000+0  21871-4 0  99942 58623  43.0000  49.2043 0001087 262.3296  97.7433 15.27577869153291

JSON: /api/v1/satellites/58623 · /tle

For live sub-satellite position, see the globe view (requires WebGL).

§ Visibility from observer

Set your observer location to see the next 7 days of passes ≥ 10°. The values pass through the URL so the page stays shareable.

No JS? Fill the form by hand. The geolocation button needs JavaScript.